Regional Weather Roundup
Issued by NWS Kansas City/Pleasant Hill, MO

Home | Current Version | Previous Version | Graphics & Text | Print | Product List | Glossary Off
Versions: 1 2 3 4 5 6 7 8 9 10 11 12 13 14 15 16 17 18 19 20 21 22 23 24 25 26 27 28 29 30 31 32 33 34 35 36 37 38 39 40 41 42 43 44 45 46 47 48 49 50

000
ASUS43 KEAX 251204
RWREAX

WEATHER ROUNDUP FOR EASTERN KANSAS AND NORTHWEST MISSOURI
NATIONAL WEATHER SERVICE KANSAS CITY/PLEASANT HILL MO
700 AM CDT FRI JUL 25 2014

KSZ040-057-103>105-MOZ028-029-037-043-251300-
...KANSAS CITY METROPOLITAN AREA...

CITY           SKY/WX    TMP DP  RH WIND       PRES   REMARKS
K.C. INTL      CLOUDY    74  66  76 S13       29.91R
6HR MIN TEMP:  70; 6HR MAX TEMP:  74;

K.C. DOWNTOWN  MOCLDY    74  65  73 S9G23     29.91R
6HR MIN TEMP:  73; 6HR MAX TEMP:  75;

LEES SUMMIT    MOCLDY    70  62  76 SE7       29.95R
6HR MIN TEMP:  70; 6HR MAX TEMP:  72;

OLATHE - IXD   MOCLDY    70  67  90 S10       29.92R
6HR MIN TEMP:  69; 6HR MAX TEMP:  72;

OLATHE - OJC   MOCLDY    70  66  87 S10       29.92R
6HR MIN TEMP:  68; 6HR MAX TEMP:  71;

LAWRENCE       MOCLDY    72  68  87 E7        29.89R

$$

MOZ001>008-011>017-020>025-030>033-038>040-044>046-053-054-251300-
...NORTHERN AND CENTRAL MISSOURI...

CITY           SKY/WX    TMP DP  RH WIND       PRES   REMARKS
ST. JOSEPH     CLOUDY    72  64  76 S12       29.87F
6HR MIN TEMP:  69; 6HR MAX TEMP:  72;

MOSBY          PTSUNNY   68  61  77 SE7       29.92S
WHITEMAN AFB   MOCLDY    68  51  53 S8        29.96R
6HR MIN TEMP:  64; 6HR MAX TEMP:  68;

CLINTON        MOCLDY    72  63  73 S9        29.98R
SEDALIA        MOCLDY    69  58  67 S8        29.99R
6HR MIN TEMP:  64; 6HR MAX TEMP:  69;

WARSAW         NOT AVBL
MARSHALL       CLOUDY    66  59  77 E6        29.99R
CHILLICOTHE      N/A     68  56  65 S9        29.94S
6HR MIN TEMP:  66; 6HR MAX TEMP:  69;

KIRKSVILLE     CLOUDY    64  55  72 E10       29.98S
6HR MIN TEMP:  63; 6HR MAX TEMP:  65;


$$

MOZ041-047>049-056>058-063>065-088>090-097-251300-
...EASTERN AND SOUTHERN MISSOURI...

CITY           SKY/WX    TMP DP  RH WIND       PRES   REMARKS
ST. LOUIS INTL CLOUDY    69  57  65 S7        30.05R
6HR MIN TEMP:  64; 6HR MAX TEMP:  70;

SPIRIT OF STL  CLOUDY    63  57  81 S3        30.04R
COLUMBIA       CLOUDY    64  56  75 S8        30.02R
JEFFERSON CITY MOCLDY    66  56  70 CALM      30.03R
ROLLA            N/A     65  56  72 S14       30.03R
LEBANON        PTCLDY    64  59  82 E8        30.04S
OSAGE BEACH    PTCLDY    64  55  72 S8        30.01S
SPRINGFIELD    PTCLDY    66  59  78 S13       30.02R
BRANSON        MOCLDY    66  63  88 S6        30.05S
NEVADA         PTCLDY    70  66  88 S10       29.97R
JOPLIN         PTCLDY    72  68  87 S9        29.99R
WEST PLAINS    MOCLDY    64  56  75 S5        30.09R

$$

IAZ060-094-KSZ022-034>040-054-083-096-NEZ052-066-093-251300-
...KANSAS...SOUTHEAST NEBRASKA AND IOWA...

CITY           SKY/WX    TMP DP  RH WIND       PRES   REMARKS
TOPEKA         CLOUDY    78  71  79 S6        29.86S
6HR MIN TEMP:  75; 6HR MAX TEMP:  79;

MANHATTAN      PTCLDY    77  70  79 SW18      29.82F
EMPORIA        PTCLDY    74  69  85 S18       29.88S
CHANUTE        CLEAR     72  70  93 S13       29.94R
WICHITA        PTCLDY    73  68  84 S12       29.91S
OMAHA          CLOUDY    75  64  68 SE16      29.79R
LINCOLN        CLEAR     74  68  81 S10       29.77R
FALLS CITY     CLOUDY    71  64  78 SE10      29.82F
LAMONI         CLOUDY    66  57  72 E7        29.93R
DES MOINES     LGT RAIN  66  60  81 E13       29.94F

$$




USA.gov is the U.S. government's official web portal to all federal, state and local government web resources and services.